Weather History for Oscoda, MI

Change the Weather History Date:

Friday, March 8, 2013

  Actual Average Record
Temperature  
Mean Temperature 28 °F -  
Max Temperature 37 °F 31 °F 58 °F (2012)
Min Temperature 20 °F 16 °F -2 °F (1999)
Degree Days  
Heating Degree Days 36    
Moisture  
Dew Point 25 °F    
Average Humidity 84    
Maximum Humidity 95    
Minimum Humidity 71    
Precipitation  
Precipitation 0.00 in - - ()
Sea Level Pressure  
Sea Level Pressure 30.43 in    
Wind  
Wind Speed 4 mph (SW)    
Max Wind Speed 9 mph    
Max Gust Speed -    
Visibility 10 miles    
Events      
Averages and records for this station are not official NWS values.
T = Trace of Precipitation, MM = Missing Value Source: NWS Daily Summary

Daily Weather History Graph

Daily Weather History Graph

Search for Another Location

Airport:

Trip Planner

Search our weather history database for the weather conditions in past years. The results will help you decide how hot, cold, wet, or windy it might be!

Date:

Astronomy

Mar. 08, 2013 Rise Set
Actual Time 6:58 AM EST 6:31 PM EST
Civil Twilight 6:29 AM EST 7:00 PM EST
Nautical Twilight 5:55 AM EST 7:33 PM EST
Astronomical Twilight 5:21 AM EST 8:07 PM EST
Moon 4:48 AM EST (3/8) 3:19 PM EST (3/8)
Length of Visible Light 12h 30m
Length of Day
11h 32m
Waning Crescent, 12% of the Moon is Illuminated
Mar 8
Waning Crescent
Mar 11
New
Mar 19
First Quarter
Mar 27
Full
Apr 3
Last Quarter

Hourly Weather History & Observations

Time (EST) Temp. Windchill Dew Point Humidity Pressure Visibility Wind Dir Wind Speed Gust Speed Precip Events Conditions
12:13 AM 22.8 °F - 18.5 °F 83% 30.39 in 10.0 mi Calm Calm - N/A   Clear
12:33 AM 22.8 °F 18.2 °F 18.5 °F 83% 30.39 in 10.0 mi West 3.5 mph - N/A   Clear
12:54 AM 21.6 °F 14.0 °F 18.1 °F 87% 30.38 in 10.0 mi West 5.8 mph - N/A   Scattered Clouds
1:13 AM 22.8 °F 16.7 °F 18.9 °F 85% 30.39 in 10.0 mi NNW 4.6 mph - N/A   Scattered Clouds
1:33 AM 22.1 °F 17.4 °F 18.5 °F 86% 30.40 in 10.0 mi WNW 3.5 mph - N/A   Clear
1:54 AM 21.0 °F - 17.8 °F 87% 30.40 in 10.0 mi Calm Calm - N/A   Clear
2:13 AM 20.3 °F 13.8 °F 17.2 °F 88% 30.41 in 10.0 mi West 4.6 mph - N/A   Clear
2:33 AM 21.0 °F 14.6 °F 17.6 °F 87% 30.41 in 10.0 mi West 4.6 mph - N/A   Clear
2:54 AM 22.1 °F 14.7 °F 18.5 °F 86% 30.41 in 10.0 mi WNW 5.8 mph - N/A   Clear
3:13 AM 22.1 °F 15.9 °F 18.5 °F 86% 30.41 in 10.0 mi NW 4.6 mph - N/A   Clear
3:33 AM 22.1 °F 15.9 °F 18.5 °F 86% 30.41 in 10.0 mi NW 4.6 mph - N/A   Scattered Clouds
3:54 AM 23.0 °F 17.0 °F 19.4 °F 86% 30.41 in 10.0 mi NNW 4.6 mph - N/A   Overcast
4:13 AM 23.5 °F 17.6 °F 19.8 °F 85% 30.42 in 10.0 mi WNW 4.6 mph - N/A   Overcast
4:33 AM 24.3 °F 19.9 °F 20.3 °F 85% 30.42 in 10.0 mi NW 3.5 mph - N/A   Overcast
4:54 AM 24.8 °F 20.5 °F 20.5 °F 84% 30.42 in 10.0 mi WNW 3.5 mph - N/A   Overcast
5:13 AM 24.8 °F 19.1 °F 20.8 °F 85% 30.43 in 10.0 mi WNW 4.6 mph - N/A   Overcast
5:33 AM 25.2 °F 19.5 °F 21.2 °F 85% 30.43 in 10.0 mi WNW 4.6 mph - N/A   Overcast
5:53 AM 25.5 °F 17.8 °F 21.9 °F 86% 30.43 in 10.0 mi West 6.9 mph - N/A   Overcast
6:13 AM 25.2 °F 20.9 °F 21.9 °F 87% 30.43 in 10.0 mi NW 3.5 mph - N/A   Overcast
6:34 AM 24.3 °F 18.4 °F 21.2 °F 88% 30.44 in 10.0 mi WNW 4.6 mph - N/A   Mostly Cloudy
6:53 AM 23.2 °F 18.7 °F 20.5 °F 89% 30.45 in 10.0 mi West 3.5 mph - N/A   Clear
7:13 AM 22.6 °F - 20.1 °F 90% 30.46 in 10.0 mi Calm Calm - N/A   Clear
7:34 AM 22.8 °F - 20.3 °F 90% 30.46 in 10.0 mi Calm Calm - N/A   Mostly Cloudy
7:53 AM 24.4 °F - 22.1 °F 91% 30.46 in 10.0 mi Calm Calm - N/A   Overcast
8:13 AM 26.4 °F 20.9 °F 22.8 °F 86% 30.46 in 10.0 mi NNW 4.6 mph - N/A   Overcast
8:34 AM 27.5 °F 22.2 °F 23.7 °F 86% 30.47 in 10.0 mi WNW 4.6 mph - N/A   Overcast
8:53 AM 28.6 °F 22.4 °F 24.8 °F 86% 30.47 in 10.0 mi NW 5.8 mph - N/A   Overcast
9:13 AM 30.0 °F 26.5 °F 25.7 °F 84% 30.46 in 10.0 mi WNW 3.5 mph - N/A   Overcast
9:34 AM 32.4 °F - 27.3 °F 82% 30.47 in 10.0 mi Calm Calm - N/A   Mostly Cloudy
9:53 AM 33.8 °F - 27.5 °F 78% 30.46 in 10.0 mi Calm Calm - N/A   Overcast
10:13 AM 33.4 °F - 27.3 °F 78% 30.47 in 10.0 mi Calm Calm - N/A   Mostly Cloudy
10:34 AM 34.0 °F - 27.7 °F 78% 30.47 in 10.0 mi Calm Calm - N/A   Scattered Clouds
10:53 AM 34.7 °F - 27.5 °F 75% 30.47 in 10.0 mi Calm Calm - N/A   Clear
11:13 AM 35.6 °F - 27.5 °F 72% 30.47 in 10.0 mi Calm Calm - N/A   Clear
11:34 AM 36.1 °F - 28.0 °F 72% 30.46 in 10.0 mi Calm Calm - N/A   Scattered Clouds
11:53 AM 36.0 °F 32.1 °F 28.6 °F 75% 30.47 in 10.0 mi East 4.6 mph - N/A   Mostly Cloudy
12:13 PM 35.6 °F 31.7 °F 29.7 °F 79% 30.46 in 10.0 mi East 4.6 mph - N/A   Overcast
12:34 PM 36.1 °F 32.3 °F 30.2 °F 79% 30.46 in 10.0 mi ESE 4.6 mph - N/A   Overcast
12:53 PM 35.6 °F 30.7 °F 30.2 °F 81% 30.45 in 10.0 mi ESE 5.8 mph - N/A   Overcast
1:13 PM 36.0 °F 32.1 °F 30.4 °F 80% 30.45 in 10.0 mi ESE 4.6 mph - N/A   Overcast
1:34 PM 36.1 °F 31.4 °F 30.2 °F 79% 30.44 in 10.0 mi East 5.8 mph - N/A   Overcast
1:53 PM 36.5 °F 32.7 °F 30.2 °F 78% 30.43 in 10.0 mi East 4.6 mph - N/A   Overcast
2:13 PM 36.5 °F 32.7 °F 30.0 °F 77% 30.42 in 10.0 mi ESE 4.6 mph - N/A   Overcast
2:33 PM 36.7 °F 32.0 °F 30.0 °F 77% 30.42 in 10.0 mi ESE 5.8 mph - N/A   Overcast
2:53 PM 36.7 °F 32.0 °F 30.0 °F 77% 30.42 in 10.0 mi ESE 5.8 mph - N/A   Scattered Clouds
3:13 PM 36.9 °F 31.4 °F 29.3 °F 74% 30.42 in 10.0 mi ESE 6.9 mph - N/A   Clear
3:33 PM 37.0 °F 31.6 °F 29.1 °F 73% 30.42 in 10.0 mi ESE 6.9 mph - N/A   Clear
3:53 PM 36.5 °F 30.3 °F 28.9 °F 74% 30.42 in 10.0 mi ESE 8.1 mph - N/A   Scattered Clouds
4:13 PM 37.2 °F 31.2 °F 29.3 °F 73% 30.41 in 10.0 mi SSE 8.1 mph - N/A   Scattered Clouds
4:33 PM 37.4 °F 30.8 °F 28.9 °F 71% 30.41 in 10.0 mi South 9.2 mph - N/A   Clear
4:53 PM 36.7 °F 32.0 °F 28.9 °F 74% 30.41 in 10.0 mi SSE 5.8 mph - N/A   Clear
5:13 PM 36.5 °F 30.3 °F 28.9 °F 74% 30.41 in 10.0 mi South 8.1 mph - N/A   Clear
5:33 PM 35.8 °F 29.4 °F 29.1 °F 77% 30.41 in 10.0 mi SSE 8.1 mph - N/A   Clear
5:53 PM 34.7 °F 29.6 °F 28.8 °F 79% 30.41 in 10.0 mi South 5.8 mph - N/A   Clear
6:14 PM 33.8 °F 30.8 °F 28.6 °F 81% 30.42 in 10.0 mi South 3.5 mph - N/A   Clear
6:33 PM 32.5 °F 27.1 °F 28.4 °F 85% 30.42 in 10.0 mi South 5.8 mph - N/A   Clear
6:53 PM 32.0 °F 26.4 °F 28.0 °F 85% 30.41 in 10.0 mi South 5.8 mph - N/A   Clear
7:14 PM 32.0 °F 28.7 °F 28.0 °F 85% 30.41 in 10.0 mi South 3.5 mph - N/A   Clear
7:33 PM 30.6 °F 27.1 °F 27.3 °F 88% 30.40 in 10.0 mi SSW 3.5 mph - N/A   Clear
7:53 PM 29.8 °F - 27.1 °F 90% 30.40 in 10.0 mi Calm Calm - N/A   Clear
8:14 PM 29.3 °F 25.6 °F 26.8 °F 90% 30.40 in 10.0 mi South 3.5 mph - N/A   Clear
8:33 PM 28.4 °F 23.3 °F 26.4 °F 92% 30.40 in 10.0 mi SSW 4.6 mph - N/A   Clear
8:53 PM 27.9 °F 24.0 °F 26.2 °F 94% 30.40 in 10.0 mi SSW 3.5 mph - N/A   Clear
9:14 PM 28.8 °F 25.0 °F 26.6 °F 92% 30.40 in 10.0 mi SSW 3.5 mph - N/A   Clear
9:33 PM 28.2 °F - 26.2 °F 92% 30.40 in 10.0 mi Calm Calm - N/A   Clear
9:53 PM 27.9 °F - 25.9 °F 92% 30.41 in 10.0 mi Calm Calm - N/A   Clear
10:13 PM 28.0 °F 22.8 °F 26.4 °F 94% 30.41 in 10.0 mi SSW 4.6 mph - N/A   Clear
10:33 PM 28.4 °F 23.3 °F 26.6 °F 93% 30.41 in 10.0 mi SSW 4.6 mph - N/A   Clear
10:54 PM 28.0 °F 24.2 °F 26.4 °F 94% 30.41 in 10.0 mi SSW 3.5 mph - N/A   Clear
11:13 PM 26.4 °F 22.4 °F 24.8 °F 94% 30.40 in 10.0 mi SW 3.5 mph - N/A   Clear
11:33 PM 25.7 °F 21.5 °F 24.4 °F 95% 30.40 in 10.0 mi SW 3.5 mph - N/A   Clear
11:54 PM 25.3 °F - 23.9 °F 94% 30.40 in 10.0 mi Calm Calm - N/A   Clear